Weather History for KOTM - September, 2013

Change the Weather History Date:

Sunday, September 1, 2013

  Actual Average Record
Temperature  
Mean Temperature 75 °F 70 °F  
Max Temperature 88 °F 81 °F 103 °F (1911)
Min Temperature 62 °F 59 °F 42 °F (1949)
Degree Days  
Heating Degree Days 0 1  
Month to date heating degree days 0 1  
Since 1 July heating degree days 16 12  
Cooling Degree Days 10 6  
Month to date cooling degree days 10 6  
Year to date cooling degree days 825 840  
Growing Degree Days 26 (Base 50)    
Moisture  
Dew Point 63 °F    
Average Humidity 66    
Maximum Humidity 97    
Minimum Humidity 34    
Precipitation  
Precipitation 0.00 in 0.14 in 3.70 in (1931)
Month to date precipitation 0.00 0.14  
Year to date precipitation 28.54 26.84  
Sea Level Pressure  
Sea Level Pressure 29.83 in    
Wind  
Wind Speed 11 mph (NW)    
Max Wind Speed 22 mph    
Max Gust Speed 29 mph    
Visibility 9 miles    
Events      
T = Trace of Precipitation, MM = Missing Value Source: NWS Daily Summary

Daily Weather History Graph

Daily Weather History Graph

Search for Another Location

Airport or City:

Trip Planner

Search our weather history database for the weather conditions in past years. The results will help you decide how hot, cold, wet, or windy it might be!

Date:

Astronomy

Sep. 01, 2013 Rise Set
Actual Time 6:36 AM CDT 7:41 PM CDT
Civil Twilight 6:08 AM CDT 8:10 PM CDT
Nautical Twilight 5:34 AM CDT 8:43 PM CDT
Astronomical Twilight 4:59 AM CDT 9:18 PM CDT
Moon 2:57 AM CDT (9/1) 5:20 PM CDT (9/1)
Length of Visible Light 14h 01m
Length of Day
13h 05m
Waning Crescent, 13% of the Moon is Illuminated
Sep 1
Waning Crescent
Sep 5
New
Sep 12
First Quarter
Sep 19
Full
Sep 26
Last Quarter

Hourly Weather History & Observations

Time (CDT) Temp. Heat Index Dew Point Humidity Pressure Visibility Wind Dir Wind Speed Gust Speed Precip Events Conditions
12:53 AM 72.0 °F - 68.0 °F 87% 29.79 in 10.0 mi East 4.6 mph - N/A   Clear
1:53 AM 68.0 °F - 66.9 °F 96% 29.78 in 9.0 mi SE 3.5 mph - N/A   Clear
2:53 AM 68.0 °F - 66.9 °F 96% 29.79 in 5.0 mi Calm Calm - N/A   Clear
3:53 AM 70.0 °F - 68.0 °F 93% 29.80 in 7.0 mi Calm Calm - N/A   Clear
4:53 AM 69.1 °F - 66.9 °F 93% 29.81 in 7.0 mi Calm Calm - N/A   Clear
5:53 AM 68.0 °F - 66.9 °F 96% 29.82 in 5.0 mi WSW 3.5 mph - N/A   Partly Cloudy
6:35 AM 71.6 °F - 69.8 °F 94% 29.84 in 7.0 mi WSW 11.5 mph - N/A   Mostly Cloudy
6:50 AM 71.6 °F - 68.0 °F 88% 29.84 in 9.0 mi WSW 15.0 mph 23.0 mph N/A   Mostly Cloudy
6:53 AM 71.1 °F - 68.0 °F 90% 29.82 in 10.0 mi WSW 12.7 mph 23.0 mph N/A   Mostly Cloudy
7:53 AM 73.9 °F - 60.1 °F 62% 29.74 in 10.0 mi SSW 13.8 mph - N/A   Clear
8:53 AM 73.9 °F - 64.0 °F 71% 29.79 in 10.0 mi North 12.7 mph - N/A   Clear
9:53 AM 78.1 °F - 64.0 °F 62% 29.80 in 10.0 mi NNW 16.1 mph - N/A   Clear
10:53 AM 81.0 °F 83.0 °F 66.0 °F 60% 29.82 in 10.0 mi NW 13.8 mph - N/A   Scattered Clouds
11:05 AM 80.6 °F 82.3 °F 64.4 °F 58% 29.84 in 10.0 mi NW 17.3 mph - N/A   Mostly Cloudy
11:19 AM 80.6 °F 82.7 °F 66.2 °F 61% 29.83 in 10.0 mi NW 18.4 mph - N/A   Mostly Cloudy
11:53 AM 82.0 °F 83.8 °F 64.9 °F 56% 29.82 in 10.0 mi NW 13.8 mph - N/A   Scattered Clouds
12:53 PM 84.0 °F 85.4 °F 64.0 °F 51% 29.81 in 10.0 mi WNW 13.8 mph - N/A   Partly Cloudy
1:53 PM 84.9 °F 86.1 °F 64.0 °F 49% 29.81 in 10.0 mi NNW 16.1 mph - N/A   Mostly Cloudy
2:53 PM 87.1 °F 86.5 °F 59.0 °F 39% 29.81 in 10.0 mi NNW 18.4 mph 24.2 mph N/A   Partly Cloudy
3:53 PM 86.0 °F 84.5 °F 55.0 °F 35% 29.82 in 10.0 mi NNW 19.6 mph 25.3 mph N/A   Clear
4:53 PM 84.9 °F 83.2 °F 53.1 °F 33% 29.83 in 10.0 mi NW 16.1 mph - N/A   Clear
5:53 PM 82.9 °F 82.0 °F 55.0 °F 38% 29.84 in 10.0 mi NNW 13.8 mph 21.9 mph N/A   Clear
6:53 PM 79.0 °F - 57.9 °F 48% 29.85 in 10.0 mi NNW 13.8 mph - N/A   Clear
7:53 PM 73.0 °F - 57.9 °F 59% 29.86 in 10.0 mi NW 9.2 mph - N/A   Clear
8:53 PM 69.1 °F - 57.9 °F 68% 29.88 in 10.0 mi NNW 6.9 mph - N/A   Clear
9:53 PM 69.1 °F - 57.9 °F 68% 29.89 in 10.0 mi North 13.8 mph - N/A   Clear
10:53 PM 66.0 °F - 59.0 °F 78% 29.91 in 10.0 mi North 9.2 mph - N/A   Clear
11:53 PM 63.0 °F - 57.9 °F 84% 29.92 in 10.0 mi NW 6.9 mph - N/A   Clear